When you browse on this site, cookies collect data to enhance your experience and personalize the content and advertising you see.
Visit our Privacy Policy to learn more. By continuing to use the site, you agree to this use of cookies and data.
  • în România
  • Lista ţărilor
  • Pe 7 zile
  • Temperatura apei
  • Hartă satelitară
  • Meteo pe hartă
  • Widget-uri
  • user-avatar
    Intrare

    Meteo pe oră la Elbasan

    Astăzi, 22 Martie, Vineri

    Timp Temperatura Precipitaţii Vânt Presiune Umiditate
    00:00 +11°C° 0 mm 3 m/s 743 mmHg 67%
    01:00 +10°C° 0 mm 3 m/s 743 mmHg 68%
    02:00 +10°C° 0 mm 3 m/s 743 mmHg 69%
    03:00 +10°C° 0 mm 3 m/s 743 mmHg 70%
    04:00 +9°C° 0 mm 3 m/s 743 mmHg 71%
    05:00 +10°C° 0 mm 3 m/s 743 mmHg 70%
    06:00 +10°C° 0 mm 3 m/s 743 mmHg 69%
    07:00 +11°C° 0 mm 3 m/s 743 mmHg 68%
    08:00 +13°C° 0 mm 3 m/s 743 mmHg 61%
    09:00 +16°C° 0 mm 3 m/s 743 mmHg 54%
    10:00 +18°C° 0 mm 3 m/s 743 mmHg 46%
    11:00 +18°C° 0 mm 3 m/s 742 mmHg 43%
    12:00 +19°C° 0 mm 3 m/s 742 mmHg 40%
    13:00 +20°C° 0 mm 3 m/s 742 mmHg 36%
    14:00 +20°C° 0 mm 3 m/s 741 mmHg 37%
    15:00 +20°C° 0 mm 3 m/s 741 mmHg 38%
    16:00 +20°C° 0 mm 3 m/s 740 mmHg 38%
    17:00 +18°C° 0 mm 2 m/s 740 mmHg 44%
    18:00 +16°C° 0 mm 2 m/s 741 mmHg 49%
    19:00 +14°C° 0 mm 2 m/s 741 mmHg 55%
    20:00 +14°C° 0 mm 2 m/s 741 mmHg 56%
    21:00 +13°C° 0 mm 2 m/s 741 mmHg 56%
    22:00 +13°C° 0 mm 2 m/s 741 mmHg 57%
    23:00 +12°C° 0 mm 2 m/s 741 mmHg 58%

    Mâine, 23 Martie, Sâmbătă

    Timp Temperatura Precipitaţii Vânt Presiune Umiditate
    00:00 +11°C° 0 mm 3 m/s 741 mmHg 59%
    01:00 +10°C° 0 mm 3 m/s 741 mmHg 61%
    02:00 +10°C° 0 mm 3 m/s 741 mmHg 61%
    03:00 +10°C° 0 mm 3 m/s 741 mmHg 62%
    04:00 +10°C° 0 mm 3 m/s 740 mmHg 63%
    05:00 +10°C° 0 mm 3 m/s 740 mmHg 62%
    06:00 +10°C° 0 mm 3 m/s 740 mmHg 61%
    07:00 +11°C° 0 mm 3 m/s 741 mmHg 60%
    08:00 +13°C° 0 mm 3 m/s 740 mmHg 53%
    09:00 +16°C° 0 mm 3 m/s 740 mmHg 46%
    10:00 +18°C° 0 mm 3 m/s 740 mmHg 39%
    11:00 +19°C° 0 mm 2 m/s 740 mmHg 37%
    12:00 +20°C° 0 mm 2 m/s 740 mmHg 34%
    13:00 +21°C° 0 mm 2 m/s 740 mmHg 32%
    14:00 +21°C° 0 mm 2 m/s 739 mmHg 34%
    15:00 +21°C° 0 mm 2 m/s 739 mmHg 35%
    16:00 +21°C° 0 mm 2 m/s 738 mmHg 36%
    17:00 +19°C° 0 mm 2 m/s 738 mmHg 42%
    18:00 +17°C° 0 mm 2 m/s 738 mmHg 49%
    19:00 +15°C° 0 mm 1 m/s 739 mmHg 55%
    20:00 +14°C° 0 mm 1 m/s 739 mmHg 55%
    21:00 +14°C° 0 mm 2 m/s 739 mmHg 55%
    22:00 +14°C° 0 mm 2 m/s 739 mmHg 55%
    23:00 +13°C° 0 mm 2 m/s 739 mmHg 55%

    Poimâine, 24 Martie, Duminică

    Timp Temperatura Precipitaţii Vânt Presiune Umiditate
    00:00 +13°C° 0 mm 2 m/s 739 mmHg 55%
    01:00 +12°C° 0 mm 2 m/s 739 mmHg 55%
    02:00 +12°C° 0 mm 2 m/s 739 mmHg 57%
    03:00 +12°C° 0 mm 2 m/s 739 mmHg 58%
    04:00 +10°C° 0 mm 2 m/s 739 mmHg 59%
    05:00 +12°C° 0 mm 2 m/s 739 mmHg 59%
    06:00 +12°C° 0 mm 2 m/s 739 mmHg 59%
    07:00 +13°C° 0 mm 2 m/s 739 mmHg 60%
    08:00 +15°C° 0 mm 2 m/s 739 mmHg 52%
    09:00 +17°C° 0 mm 2 m/s 739 mmHg 44%
    10:00 +20°C° 0 mm 1 m/s 739 mmHg 37%
    11:00 +21°C° 0 mm 1 m/s 739 mmHg 34%
    12:00 +21°C° 0 mm 2 m/s 739 mmHg 32%
    13:00 +23°C° 0 mm 2 m/s 739 mmHg 30%
    14:00 +21°C° 0 mm 2 m/s 738 mmHg 33%
    15:00 +21°C° 0 mm 2 m/s 738 mmHg 36%
    16:00 +20°C° 0 mm 3 m/s 737 mmHg 39%
    17:00 +18°C° 0 mm 2 m/s 737 mmHg 47%
    18:00 +16°C° 0 mm 1 m/s 737 mmHg 55%
    19:00 +14°C° 0 mm 1 m/s 737 mmHg 64%
    20:00 +13°C° 0 mm 0 m/s 738 mmHg 64%
    21:00 +12°C° 0 mm 0 m/s 738 mmHg 65%
    22:00 +12°C° 0 mm 0 m/s 738 mmHg 66%
    23:00 +12°C° 0 mm 0 m/s 738 mmHg 66%

    25 Martie, Luni

    Timp Temperatura Precipitaţii Vânt Presiune Umiditate
    00:00 +11°C° 0 mm 0 m/s 738 mmHg 66%
    01:00 +12°C° 0 mm 1 m/s 737 mmHg 65%
    02:00 +12°C° 0 mm 1 m/s 737 mmHg 65%
    03:00 +12°C° 0 mm 1 m/s 737 mmHg 65%
    04:00 +11°C° 0 mm 1 m/s 737 mmHg 65%
    05:00 +12°C° 0 mm 1 m/s 737 mmHg 62%
    06:00 +13°C° 0 mm 1 m/s 737 mmHg 60%
    07:00 +13°C° 0 mm 1 m/s 737 mmHg 57%
    08:00 +15°C° 0 mm 1 m/s 737 mmHg 52%
    09:00 +18°C° 0 mm 1 m/s 737 mmHg 47%
    10:00 +20°C° 0 mm 1 m/s 737 mmHg 42%
    11:00 +21°C° 0 mm 1 m/s 737 mmHg 42%
    12:00 +20°C° 0 mm 2 m/s 736 mmHg 41%
    13:00 +21°C° 0 mm 2 m/s 736 mmHg 41%
    14:00 +20°C° 0 mm 3 m/s 736 mmHg 45%
    15:00 +19°C° 0 mm 3 m/s 735 mmHg 49%
    16:00 +19°C° 0 mm 3 m/s 735 mmHg 54%
    17:00 +17°C° 0 mm 2 m/s 735 mmHg 63%
    18:00 +15°C° 0 mm 1 m/s 735 mmHg 72%
    19:00 +13°C° 0 mm 1 m/s 735 mmHg 81%
    20:00 +12°C° 0 mm 0 m/s 735 mmHg 81%
    21:00 +12°C° 0 mm 0 m/s 735 mmHg 82%
    22:00 +11°C° 0 mm 0 m/s 735 mmHg 83%
    23:00 +11°C° 0 mm 0 m/s 735 mmHg 83%

    26 Martie, Marţi

    Timp Temperatura Precipitaţii Vânt Presiune Umiditate
    00:00 +11°C° 0 mm 0 m/s 735 mmHg 82%
    01:00 +10°C° 0 mm 0 m/s 735 mmHg 82%
    02:00 +11°C° 0 mm 1 m/s 735 mmHg 82%
    03:00 +11°C° 0 mm 1 m/s 735 mmHg 82%
    04:00 +11°C° 0 mm 1 m/s 735 mmHg 82%
    05:00 +11°C° 0.2 mm 1 m/s 735 mmHg 79%
    06:00 +10°C° 0.2 mm 2 m/s 735 mmHg 76%
    07:00 +12°C° 0.2 mm 2 m/s 735 mmHg 73%
    08:00 +12°C° 0.6 mm 2 m/s 735 mmHg 72%
    09:00 +10°C° 0.6 mm 2 m/s 735 mmHg 71%
    10:00 +10°C° 0.6 mm 3 m/s 735 mmHg 70%
    11:00 +12°C° 0.1 mm 2 m/s 735 mmHg 62%
    12:00 +13°C° 0.1 mm 2 m/s 735 mmHg 54%
    13:00 +15°C° 0.1 mm 2 m/s 735 mmHg 47%
    14:00 +13°C° 0.2 mm 3 m/s 735 mmHg 45%
    15:00 +12°C° 0.2 mm 4 m/s 735 mmHg 43%
    16:00 +12°C° 0.2 mm 5 m/s 735 mmHg 41%
    17:00 +9°C° 0.1 mm 5 m/s 736 mmHg 43%
    18:00 +8°C° 0.1 mm 4 m/s 736 mmHg 44%
    19:00 +6°C° 0.1 mm 4 m/s 737 mmHg 46%
    20:00 +5°C° 0 mm 3 m/s 737 mmHg 49%
    21:00 +5°C° 0 mm 3 m/s 737 mmHg 52%
    22:00 +4°C° 0 mm 3 m/s 738 mmHg 55%
    23:00 +3°C° 0 mm 3 m/s 738 mmHg 56%

    27 Martie, Miercuri

    Timp Temperatura Precipitaţii Vânt Presiune Umiditate
    00:00 +4°C° 0 mm 2 m/s 738 mmHg 58%
    01:00 +3°C° 0 mm 2 m/s 738 mmHg 60%
    02:00 +3°C° 0 mm 2 m/s 738 mmHg 61%
    03:00 +3°C° 0 mm 2 m/s 738 mmHg 62%
    04:00 +3°C° 0 mm 2 m/s 738 mmHg 64%
    05:00 +4°C° 0 mm 2 m/s 738 mmHg 61%
    06:00 +5°C° 0 mm 2 m/s 739 mmHg 57%
    07:00 +5°C° 0 mm 2 m/s 739 mmHg 54%
    08:00 +7°C° 0 mm 3 m/s 740 mmHg 49%
    09:00 +8°C° 0 mm 4 m/s 740 mmHg 43%
    10:00 +10°C° 0 mm 5 m/s 740 mmHg 37%
    11:00 +12°C° 0 mm 5 m/s 740 mmHg 36%
    12:00 +13°C° 0 mm 5 m/s 740 mmHg 34%
    13:00 +13°C° 0 mm 5 m/s 740 mmHg 33%
    14:00 +13°C° 0 mm 4 m/s 740 mmHg 33%
    15:00 +13°C° 0 mm 4 m/s 740 mmHg 34%
    16:00 +13°C° 0 mm 3 m/s 740 mmHg 34%
    17:00 +11°C° 0 mm 3 m/s 740 mmHg 40%
    18:00 +10°C° 0 mm 3 m/s 740 mmHg 45%
    19:00 +8°C° 0 mm 2 m/s 741 mmHg 51%
    20:00 +7°C° 0 mm 2 m/s 741 mmHg 53%
    21:00 +7°C° 0 mm 2 m/s 741 mmHg 56%
    22:00 +6°C° 0 mm 2 m/s 742 mmHg 58%
    23:00 +6°C° 0 mm 2 m/s 742 mmHg 59%
    Arată mai mult